Temp
-5 -6 -7 -7 -7 -7 -8 -7 -8 -9 -8 -9 -9 -9 -10 -9 -9 -9 -9 -9 -9 -8 -9 -9 -9 -8 -9 -9 -9 -10 -9 -9 -10 -10 -9 -9 -9 -9 -9 -10 -10 -10 -10 -11
-5 -6 -7 -7 -7 -7 -7 -7 -7 -9 -9 -9 -9 -9 -9 -8 -8 -9 -9 -9 -9 -9 -8 -8 -9 -9 -9 -9 -10 -10 -10 -10 -10 -9 -9 -9 -9 -9 -9 -10 -10 -10 -10 -10
-5 -6 -6 -7 -7 -7 -8 -7 -8 -8 -9 -9 -8 -8 -8 -9 -8 -9 -9 -9 -9 -9 -10 -9 -9 -10 -10 -10 -10 -10 -9 -9 -10 -10 -10 -9 -9 -9 -10 -10 -10 -10 -10 -10
-6 -7 -7 -7 -7 -7 -7 -8 -8 -8 -8 -9 -9 -8 -8 -9 -8 -9 -8 -9 -9 -9 -9 -9 -9 -9 -10 -10 -10 -10 -10 -10 -10 -11 -10 -11 -10 -9 -10 -10 -10 -10 -10 -10
-7 -7 -7 -6 -7 -7 -7 -8 -8 -8 -8 -9 -9 -8 -7 -9 -9 -9 -10 -9 -9 -9 -9 -9 -9 -10 -10 -10 -10 -10 -10 -10 -10 -10 -10 -10 -10 -10 -10 -10 -10 -10 -10 -11
-8 -7 -7 -8 -8 -8 -7 -8 -8 -8 -8 -8 -8 -9 -8 -9 -9 -9 -9 -9 -9 -9 -9 -9 -9 -9 -10 -10 -9 -9 -10 -10 -10 -10 -10 -10 -9 -10 -11 -10 -10 -10 -11 -11
-8 -8 -8 -8 -8 -8 -8 -8 -9 -9 -8 -8 -9 -8 -8 -8 -9 -9 -9 -9 -9 -9 -9 -9 -9 -9 -9 -9 -9 -9 -10 -10 -10 -10 -10 -10 -10 -10 -10 -10 -10 -10 -10 -11
-8 -8 -8 -8 -8 -9 -9 -9 -8 -7 -7 -8 -8 -8 -8 -8 -9 -9 -9 -9 -9 -9 -9 -9 -9 -9 -9 -9 -9 -9 -10 -10 -10 -10 -10 -10 -10 -10 -10 -10 -10 -10 -10 -11
-8 -8 -8 -8 -9 -9 -9 -9 -9 -9 -8 -8 -8 -8 -9 -9 -9 -9 -9 -9 -9 -9 -9 -9 -9 -9 -9 -9 -9 -9 -10 -10 -10 -10 -9 -10 -10 -9 -9 -10 -10 -11 -10 -10
-8 -7 -9 -9 -10 -9 -9 -9 -9 -10 -9 -9 -9 -8 -8 -9 -10 -9 -9 -9 -9 -9 -9 -9 -9 -9 -9 -9 -9 -9 -10 -10 -10 -10 -9 -10 -10 -9 -9 -9 -10 -11 -11 -10
-9 -8 -7 -9 -10 -10 -10 -10 -10 -10 -10 -10 -9 -9 -9 -9 -9 -10 -10 -10 -10 -10 -9 -9 -9 -9 -9 -10 -10 -10 -10 -10 -10 -10 -10 -10 -10 -10 -10 -10 -10 -11 -11 -11
-11 -10 -9 -8 -9 -9 -10 -10 -11 -11 -11 -10 -10 -9 -9 -9 -9 -10 -10 -10 -10 -11 -11 -10 -10 -10 -10 -10 -10 -10 -10 -10 -10 -10 -10 -11 -11 -11 -11 -10 -10 -11 -11 -11
-11 -11 -11 -10 -10 -10 -10 -10 -10 -11 -11 -11 -10 -9 -10 -10 -10 -11 -10 -10 -10 -10 -10 -10 -10 -10 -10 -10 -10 -10 -10 -10 -9 -10 -10 -10 -11 -11 -11 -10 -11 -11 -11 -11
-11 -11 -11 -11 -11 -10 -11 -11 -11 -11 -11 -11 -11 -11 -11 -11 -10 -10 -11 -11 -10 -10 -10 -10 -10 -10 -11 -11 -10 -11 -10 -10 -10 -10 -11 -11 -11 -11 -11 -11 -11 -11 -11 -11
-11 -11 -11 -11 -11 -12 -11 -11 -11 -11 -11 -11 -11 -11 -11 -11 -11 -10 -10 -10 -11 -11 -11 -11 -11 -11 -10 -11 -11 -11 -11 -11 -11 -11 -11 -12 -12 -11 -11 -11 -11 -12 -12 -12
-10 -10 -10 -10 -11 -11 -11 -11 -11 -11 -10 -11 -11 -11 -11 -11 -11 -11 -10 -10 -11 -11 -11 -11 -11 -11 -11 -10 -12 -12 -12 -11 -12 -12 -12 -12 -11 -11 -12 -12 -12 -12 -12 -12
-11 -10 -10 -10 -10 -11 -11 -12 -12 -12 -12 -11 -11 -10 -10 -11 -11 -11 -11 -10 -10 -11 -12 -11 -11 -12 -12 -11 -11 -12 -12 -12 -12 -12 -12 -12 -12 -12 -11 -12 -12 -12 -12 -12
-11 -11 -11 -10 -11 -11 -11 -12 -12 -13 -13 -12 -12 -11 -11 -11 -11 -12 -11 -11 -11 -11 -11 -12 -12 -11 -12 -12 -12 -11 -11 -12 -12 -12 -12 -12 -12 -12 -11 -11 -12 -12 -12 -12
-12 -12 -12 -11 -11 -11 -12 -13 -13 -13 -12 -12 -13 -13 -12 -12 -12 -12 -12 -12 -12 -12 -11 -11 -12 -12 -12 -12 -12 -12 -12 -10 -12 -13 -13 -12 -12 -12 -10 -11 -12 -11 -12 -12
-13 -13 -13 -14 -14 -13 -12 -13 -14 -14 -14 -14 -13 -13 -13 -13 -12 -12 -13 -14 -13 -12 -12 -11 -11 -12 -11 -12 -11 -12 -12 -12 -12 -12 -13 -13 -13 -13 -12 -11 -10 -11 -13 -12
-14 -15 -15 -15 -15 -14 -13 -14 -15 -15 -14 -14 -14 -13 -13 -13 -13 -12 -13 -13 -13 -13 -13 -12 -12 -12 -12 -12 -12 -12 -12 -12 -12 -12 -12 -11 -12 -13 -12 -12 -13 -13 -12 -12
-15 -15 -15 -16 -17 -16 -15 -15 -15 -15 -15 -14 -14 -14 -14 -14 -14 -13 -13 -13 -13 -13 -13 -13 -13 -13 -13 -12 -12 -12 -12 -12 -12 -12 -12 -12 -7 -13 -13 -13 -13 -13 -12 -12
-15 -15 -16 -16 -16 -16 -15 -15 -15 -15 -15 -15 -15 -15 -15 -14 -14 -14 -14 -14 -13 -13 -13 -12 -13 -13 -13 -13 -13 -12 -13 -12 -12 -12 -12 -11 -7 -12 -12 -12 -13 -13 -12 -12
-17 -17 -16 -15 -16 -16 -16 -17 -16 -16 -16 -16 -16 -16 -16 -16 -16 -16 -16 -15 -15 -14 -13 -13 -12 -12 -13 -13 -13 -13 -13 -12 -12 -12 -11 -9 -11 -12 -12 -13 -13 -13 -12 -12
-16 -16 -16 -17 -18 -17 -18 -18 -18 -18 -18 -17 -17 -17 -17 -17 -17 -17 -17 -17 -17 -15 -15 -14 -13 -12 -13 -13 -13 -13 -13 -12 -12 -12 -11 -8 -11 -11 -13 -12 -12 -13 -13 -12
-16 -17 -17 -17 -18 -17 -18 -18 -18 -18 -18 -18 -18 -18 -18 -18 -18 -18 -18 -18 -18 -17 -16 -15 -14 -13 -13 -13 -13 -13 -13 -12 -12 -12 -12 -12 -12 -12 -13 -13 -13 -13 -13 -13
Height
5883 5885 5885 5885 5887 5887 5888 5890 5893 5896 5896 5893 5893 5892 5894 5897 5899 5901 5903 5903 5904 5906 5904 5905 5906 5906 5905 5905 5903 5901 5901 5901 5900 5898 5898 5897 5897 5894 5891 5889 5885 5885 5884 5882
5881 5880 5879 5881 5882 5883 5884 5885 5888 5890 5891 5887 5889 5887 5889 5890 5894 5895 5898 5898 5899 5900 5901 5900 5901 5900 5899 5900 5900 5897 5896 5895 5895 5894 5894 5893 5891 5886 5884 5883 5881 5879 5879 5877
5877 5875 5875 5876 5877 5878 5878 5880 5882 5883 5883 5882 5883 5884 5882 5886 5889 5888 5891 5892 5893 5894 5895 5895 5894 5894 5896 5895 5895 5893 5892 5892 5891 5889 5888 5886 5884 5885 5880 5877 5876 5875 5875 5873
5873 5871 5871 5872 5873 5872 5874 5875 5876 5877 5878 5878 5879 5880 5882 5877 5882 5883 5887 5886 5886 5887 5889 5889 5889 5889 5889 5891 5891 5890 5889 5888 5886 5884 5882 5873 5874 5879 5881 5876 5872 5871 5870 5869
5868 5867 5867 5869 5870 5868 5872 5869 5870 5871 5871 5871 5876 5876 5877 5879 5878 5878 5879 5881 5881 5882 5882 5883 5882 5884 5883 5884 5884 5886 5886 5884 5883 5882 5879 5877 5874 5877 5876 5873 5869 5868 5867 5865
5863 5863 5864 5867 5867 5866 5868 5867 5867 5867 5867 5865 5869 5868 5870 5873 5875 5875 5876 5873 5871 5871 5873 5875 5876 5877 5875 5877 5878 5879 5880 5881 5879 5878 5877 5876 5873 5870 5870 5868 5865 5863 5860 5859
5861 5860 5862 5862 5863 5864 5863 5864 5862 5861 5862 5861 5862 5860 5861 5864 5868 5868 5867 5868 5868 5867 5867 5868 5867 5868 5868 5869 5872 5873 5874 5876 5874 5872 5872 5871 5868 5866 5862 5860 5859 5857 5847 5851
5856 5858 5859 5858 5860 5860 5858 5859 5858 5856 5856 5858 5856 5853 5856 5857 5858 5860 5859 5858 5860 5861 5861 5860 5859 5859 5860 5861 5864 5866 5866 5869 5867 5865 5864 5862 5860 5858 5856 5854 5853 5849 5842 5845
5852 5856 5852 5853 5853 5854 5855 5854 5855 5850 5850 5848 5851 5850 5850 5850 5849 5850 5851 5850 5850 5852 5853 5852 5853 5851 5853 5855 5856 5857 5857 5860 5859 5858 5856 5855 5853 5852 5849 5848 5847 5840 5841 5840
5846 5850 5850 5851 5848 5848 5846 5849 5848 5846 5841 5840 5841 5841 5842 5843 5843 5842 5841 5840 5841 5841 5842 5842 5843 5843 5843 5845 5845 5846 5848 5850 5850 5850 5848 5847 5845 5843 5843 5842 5841 5835 5835 5836
5838 5841 5845 5846 5845 5844 5842 5840 5840 5838 5836 5832 5830 5834 5838 5837 5837 5834 5835 5834 5833 5833 5832 5833 5834 5834 5835 5835 5836 5837 5838 5841 5842 5840 5838 5838 5836 5835 5836 5837 5836 5833 5831 5831
5829 5827 5830 5835 5837 5837 5836 5835 5833 5829 5828 5825 5823 5823 5830 5830 5828 5827 5825 5823 5821 5821 5823 5823 5823 5825 5826 5828 5829 5831 5831 5831 5833 5832 5831 5830 5828 5830 5830 5830 5828 5825 5825 5824
5824 5820 5817 5821 5829 5828 5825 5825 5824 5822 5819 5817 5814 5814 5819 5820 5819 5818 5817 5817 5816 5814 5813 5811 5813 5817 5819 5820 5820 5820 5821 5823 5826 5825 5825 5824 5822 5823 5822 5820 5819 5818 5818 5817
5815 5812 5810 5808 5812 5816 5815 5814 5811 5810 5807 5808 5805 5805 5808 5808 5809 5810 5809 5808 5808 5808 5805 5804 5806 5807 5810 5812 5812 5812 5814 5816 5817 5816 5816 5815 5814 5815 5812 5810 5811 5811 5809 5809
5803 5799 5797 5796 5796 5797 5797 5800 5802 5801 5800 5792 5793 5792 5793 5793 5796 5798 5798 5798 5799 5799 5798 5796 5796 5798 5797 5801 5804 5805 5805 5806 5807 5806 5805 5805 5806 5806 5803 5801 5800 5800 5799 5796
5792 5788 5786 5784 5786 5782 5777 5779 5784 5789 5786 5781 5778 5777 5778 5779 5781 5783 5784 5785 5786 5786 5786 5786 5785 5786 5787 5788 5792 5795 5795 5796 5796 5797 5796 5794 5797 5797 5795 5792 5792 5791 5790 5789
5779 5779 5775 5766 5771 5771 5763 5768 5769 5768 5768 5769 5767 5766 5764 5764 5766 5768 5771 5771 5772 5774 5774 5775 5774 5775 5776 5777 5777 5781 5785 5785 5786 5787 5787 5785 5784 5783 5784 5781 5779 5779 5780 5778
5769 5767 5761 5755 5754 5750 5754 5752 5752 5750 5750 5750 5751 5751 5749 5750 5753 5754 5753 5755 5757 5758 5760 5762 5762 5763 5763 5766 5766 5767 5765 5770 5775 5775 5776 5775 5771 5771 5773 5768 5765 5766 5767 5765
5753 5751 5747 5743 5739 5737 5738 5736 5733 5731 5734 5733 5733 5733 5734 5735 5737 5738 5736 5736 5739 5742 5744 5746 5747 5749 5751 5752 5754 5755 5754 5755 5759 5762 5764 5764 5761 5761 5758 5734 5744 5752 5754 5755
5736 5732 5730 5727 5722 5717 5720 5722 5721 5719 5715 5714 5715 5716 5717 5717 5716 5717 5716 5718 5719 5721 5724 5727 5729 5731 5733 5737 5739 5739 5739 5741 5743 5747 5751 5751 5749 5744 5747 5744 5745 5737 5743 5743
5724 5718 5713 5709 5705 5704 5702 5706 5706 5699 5701 5696 5696 5699 5699 5698 5697 5698 5697 5697 5698 5699 5702 5705 5708 5712 5714 5716 5718 5719 5720 5723 5725 5731 5732 5728 5728 5729 5727 5729 5728 5728 5730 5731
5708 5706 5703 5698 5693 5691 5694 5689 5688 5682 5682 5679 5680 5679 5679 5679 5679 5678 5676 5675 5676 5679 5682 5684 5686 5689 5692 5694 5697 5699 5702 5702 5707 5711 5709 5709 5693 5706 5714 5716 5718 5716 5719 5719
5693 5689 5685 5686 5685 5686 5679 5677 5674 5668 5665 5663 5662 5660 5657 5658 5659 5659 5659 5657 5655 5657 5661 5663 5666 5667 5672 5673 5675 5681 5682 5686 5688 5686 5683 5661 5636 5671 5695 5701 5704 5705 5706 5706
5681 5675 5671 5670 5679 5666 5667 5664 5658 5654 5651 5648 5644 5642 5640 5638 5637 5637 5636 5636 5635 5636 5639 5642 5646 5647 5651 5654 5657 5659 5667 5670 5673 5670 5655 5637 5651 5668 5678 5686 5689 5691 5691 5691
5667 5667 5665 5663 5658 5655 5654 5648 5645 5641 5637 5633 5631 5627 5624 5621 5620 5617 5616 5614 5613 5616 5619 5621 5625 5627 5629 5635 5642 5643 5650 5656 5656 5651 5648 5615 5631 5651 5664 5669 5671 5674 5675 5678
5660 5656 5654 5654 5649 5646 5647 5640 5635 5630 5626 5622 5618 5615 5611 5605 5602 5598 5597 5595 5594 5597 5599 5602 5603 5606 5610 5616 5626 5629 5635 5638 5631 5636 5634 5633 5639 5642 5649 5655 5660 5662 5663 5667
Wind_Speed
18 19 18 20 22 24 30 27 27 27 27 32 29 30 31 21 18 15 20 17 20 15 14 12 15 9 6 13 12 13 7 5 4 7 9 11 15 13 12 12 11 9 13 17
15 18 21 20 20 24 27 28 26 30 30 34 34 35 32 25 22 18 26 24 23 21 23 19 21 9 8 14 13 14 15 14 11 16 19 21 19 16 13 14 11 12 18 17
17 22 22 23 23 25 28 28 31 36 38 39 39 38 36 27 28 27 27 26 27 25 21 23 18 15 15 9 9 13 17 21 19 21 27 27 28 26 16 19 16 15 20 19
20 23 23 24 25 28 27 28 32 36 39 43 40 36 33 34 27 29 32 26 20 24 15 11 15 18 17 7 10 17 22 22 26 28 34 34 33 27 23 28 22 18 20 17
20 22 24 23 25 29 28 31 33 36 40 42 41 40 34 34 34 33 26 29 16 16 16 17 17 13 11 17 14 19 24 23 28 26 27 23 16 24 32 31 27 24 21 20
18 20 19 18 24 28 28 30 32 36 40 43 40 39 38 41 36 35 34 29 27 23 23 23 22 17 24 22 19 19 23 22 31 29 25 19 24 33 39 35 29 28 23 23
20 20 20 19 20 24 30 29 29 34 37 39 37 40 40 39 43 42 41 36 33 30 30 30 32 29 27 25 22 23 22 24 29 32 28 26 30 35 34 29 33 30 34 22
20 17 17 21 21 22 26 29 31 33 32 30 30 35 31 31 42 45 46 48 46 40 33 38 41 38 36 32 26 25 25 26 28 32 37 33 35 37 26 28 35 35 24 25
25 20 26 25 23 24 27 31 29 33 33 34 29 30 26 26 31 39 52 57 55 50 45 43 38 37 36 38 37 26 25 24 28 32 35 32 33 26 25 29 32 34 22 25
25 15 22 22 29 30 32 31 32 32 35 34 34 29 28 21 23 30 34 43 46 45 47 43 43 37 34 35 28 28 27 27 31 33 35 28 26 25 26 29 30 33 24 25
29 25 19 19 25 29 33 35 35 37 37 40 40 34 28 27 18 23 23 28 34 35 36 35 37 33 31 32 32 31 31 32 35 30 30 28 25 24 26 28 31 29 27 27
38 38 33 28 27 27 27 30 38 43 43 44 45 43 31 27 28 26 29 31 33 26 28 36 36 33 35 36 38 39 41 39 30 31 21 15 15 20 25 27 29 26 27 28
39 44 46 41 32 31 36 37 35 39 50 54 51 47 41 37 34 33 34 36 39 38 38 39 40 38 37 43 43 46 39 37 25 18 18 15 18 21 27 29 28 28 29 32
38 45 51 52 47 41 43 45 48 50 49 44 50 50 51 50 41 35 37 42 42 42 44 45 44 41 37 37 33 37 39 36 29 26 27 28 20 27 32 32 28 31 33 34
43 47 48 51 53 56 56 51 52 53 52 56 52 50 50 52 50 44 39 40 42 50 49 51 51 50 47 34 36 33 38 34 32 31 32 30 31 31 31 32 31 33 35 35
45 49 51 54 54 58 61 59 55 51 52 55 57 56 53 51 51 48 43 42 39 42 48 55 54 51 46 52 32 36 36 36 36 37 37 38 37 34 30 33 36 36 37 36
48 48 51 60 56 57 64 61 58 59 59 59 61 61 61 59 54 52 50 48 46 45 46 49 50 45 43 45 44 30 37 42 42 41 41 44 47 45 39 40 43 42 42 41
48 49 54 59 57 61 58 60 59 60 60 60 60 61 62 62 59 55 56 55 55 53 51 49 52 52 50 43 42 44 37 41 42 46 44 45 51 50 50 45 45 42 48 47
50 50 54 56 58 60 58 55 54 55 55 55 56 59 60 60 60 60 61 60 62 63 59 59 58 57 55 55 52 54 55 52 42 46 51 51 53 56 53 52 47 50 42 43
50 51 52 53 55 60 59 56 54 52 57 56 57 57 56 57 59 59 60 63 65 65 68 68 66 67 68 64 60 62 61 59 58 54 50 54 57 63 55 54 57 47 44 38
46 49 52 52 56 58 57 52 48 53 56 56 57 55 56 57 58 58 60 62 65 68 69 67 68 72 75 73 69 68 69 67 66 66 63 62 63 61 61 57 54 51 50 43
44 44 46 51 54 55 51 52 52 56 55 57 57 58 58 58 58 59 61 62 62 65 69 69 72 74 69 71 74 75 76 78 77 73 68 74 68 65 59 57 57 46 48 44
43 43 45 45 45 44 50 50 52 56 58 58 58 60 60 60 58 57 57 62 64 63 63 68 73 74 76 78 81 76 74 72 73 74 85 88 65 51 55 54 49 45 47 44
36 42 46 48 39 47 45 46 51 53 55 57 58 58 57 59 59 59 59 59 60 62 65 64 66 71 78 80 77 77 78 74 68 72 39 27 52 55 51 49 46 44 44 44
42 43 44 39 39 44 39 43 45 46 48 49 49 50 51 52 50 51 52 55 60 61 65 67 67 71 70 71 74 75 69 62 66 59 33 32 43 47 44 45 44 42 44 43
38 37 37 32 35 39 34 36 38 39 40 41 41 42 44 47 48 51 52 52 50 53 61 62 69 72 69 68 63 66 63 52 56 49 43 31 30 35 41 45 47 43 44 45
Wind_Direction
253 249 242 235 234 230 232 237 232 228 228 228 231 236 245 261 269 277 290 303 301 308 281 300 298 328 9 3 359 353 341 310 316 321 303 295 278 265 284 303 293 298 319 323
257 249 246 242 234 233 233 236 225 211 211 232 230 238 242 254 264 265 281 278 290 294 281 291 296 309 354 350 336 336 328 332 328 320 327 318 303 279 283 291 287 283 307 306
242 247 247 247 240 234 229 233 229 225 223 229 236 240 250 248 257 258 269 285 284 291 281 298 312 328 325 344 328 313 331 339 335 342 314 302 300 283 277 279 274 269 289 298
244 245 246 245 245 243 239 231 233 237 233 227 235 246 252 278 264 256 267 277 299 271 279 294 311 306 300 321 292 300 313 330 326 333 340 345 269 290 297 291 285 273 276 285
244 248 249 251 252 255 253 238 237 238 240 242 236 251 257 250 261 271 273 268 257 250 263 277 289 308 298 271 283 293 304 312 320 325 339 347 351 334 328 303 283 277 271 275
243 249 254 264 261 261 259 252 248 247 249 257 259 253 257 254 253 259 249 254 253 255 262 262 273 279 275 269 277 281 298 298 313 316 322 316 317 325 317 299 284 274 267 276
236 245 249 245 250 259 261 258 249 246 251 260 266 263 263 261 249 254 258 258 255 256 257 268 273 269 266 275 274 287 282 293 296 299 313 296 299 310 300 281 283 274 269 273
240 242 248 253 252 242 246 247 257 268 266 258 257 270 275 268 253 249 256 262 264 261 269 265 273 269 275 272 280 279 272 283 288 294 307 293 296 299 290 263 274 274 280 275
259 257 252 250 250 252 246 254 265 269 272 273 273 273 277 278 269 258 253 260 266 264 260 260 267 265 262 267 267 274 267 278 283 295 296 288 290 283 279 272 271 277 278 274
271 259 244 249 253 255 259 260 261 264 272 272 276 276 281 275 262 267 266 260 264 268 263 265 254 258 255 261 272 273 272 278 285 294 293 279 274 273 273 275 270 273 281 273
279 277 262 251 248 258 264 267 267 271 272 278 282 279 283 287 276 258 261 261 267 265 256 262 266 265 263 269 271 268 275 285 293 289 280 271 267 271 271 269 267 270 272 274
276 281 281 273 271 272 269 269 264 263 270 271 275 279 279 277 277 261 247 243 246 248 260 259 257 256 259 263 265 268 275 284 285 290 260 273 283 278 275 270 267 269 273 275
272 271 276 279 278 277 275 276 272 261 263 269 275 279 279 278 273 271 254 249 253 249 252 254 261 263 270 266 274 281 284 285 285 280 259 284 294 277 268 266 268 273 273 272
266 265 266 270 271 268 267 271 274 278 277 272 268 276 276 275 273 266 263 249 246 247 252 255 261 261 278 276 283 265 268 279 287 281 272 273 298 282 272 274 275 275 277 280
262 262 263 264 266 265 266 264 264 269 273 275 275 269 267 268 268 265 259 256 254 252 252 256 260 263 263 271 271 266 267 281 282 287 281 288 279 285 277 284 289 288 290 292
266 270 273 274 270 270 269 264 263 261 260 261 265 267 266 264 262 260 254 256 254 254 253 256 261 265 265 269 271 274 273 269 280 286 286 282 280 287 282 287 287 294 296 291
264 269 273 275 276 268 266 271 271 267 264 262 261 262 264 266 263 260 256 254 253 253 252 253 252 249 251 255 257 259 263 270 276 278 275 276 280 283 289 289 294 291 291 294
267 269 271 276 276 272 271 268 267 267 266 265 262 261 262 262 264 265 260 255 254 254 251 249 250 249 248 248 251 253 252 261 268 274 278 275 277 278 285 279 273 287 292 293
275 273 272 271 273 272 270 272 274 273 269 266 265 265 265 264 262 260 259 259 255 254 252 250 250 250 251 254 254 258 261 264 260 270 274 275 271 274 274 257 293 283 277 289
278 278 277 276 273 272 271 270 272 270 269 271 269 268 267 265 263 261 259 256 254 255 254 251 251 253 256 258 256 254 253 261 265 260 264 268 269 272 269 271 272 275 290 292
275 278 279 278 277 276 276 276 275 273 275 273 270 269 266 264 264 262 258 256 254 254 252 252 253 251 252 255 255 257 259 259 261 264 257 249 256 261 263 274 281 282 286 289
279 273 270 270 271 276 283 281 280 278 277 277 276 275 273 271 268 264 261 258 254 251 251 254 253 250 253 254 253 256 258 261 264 265 260 259 234 249 258 268 272 276 279 284
282 280 278 273 274 279 277 278 278 279 279 278 277 277 277 275 271 266 263 262 259 255 250 249 249 253 254 253 255 255 258 261 265 269 265 253 238 239 249 260 267 274 278 286
284 280 282 286 293 284 283 281 279 278 278 278 279 280 278 276 275 273 271 265 259 257 254 250 248 249 250 252 255 258 259 261 268 262 261 240 220 235 238 254 261 271 282 289
281 286 289 291 288 286 290 288 286 285 286 287 289 289 288 287 285 282 276 270 263 256 253 252 250 249 250 253 253 257 261 260 265 268 252 228 204 218 242 253 264 275 284 286
288 286 288 293 289 293 295 287 289 290 292 293 293 291 289 288 286 284 280 275 270 262 256 253 251 251 254 254 254 257 261 263 266 262 234 221 225 235 247 255 265 276 280 278